This demonstration page uses our WeatherBlox Daily Observations layout. Learn more.

Left ArrowRight Arrow

39.12711, -84.51439

Hourly Observations for October 29, 2016

Temp ( °F °C ) Dew Point ( °F °C ) Humidity (%) Winds ( mph kmh ) Pressure ( in mb ) Visibility ( mi km ) Precip ( " mm )
12:10 am 00:10 Clear with Mist and Fog 46 7.8 46 7.8 100 100 Calm 30.18 1022 3 4 0.00 0.00
12:17 am 00:17 Clear with Mist and Fog 46 7.8 46 7.8 100 100 Calm 30.18 1022 6 10 0.00 0.00
12:53 am 00:53 Clear 46 7.8 46 7.8 100 100 Calm 30.17 1022 7 11 0.00 0.00
1:20 am 01:20 Clear with Mist and Fog 45 7 45 7 100 100 Calm 30.18 1022 3 4 0.00 0.00
1:28 am 01:28 Clear with Mist and Fog 46 8 46 8 100 100 Calm 30.18 1022 1 1 0.00 0.00
1:41 am 01:41 Clear with Fog 43 6.1 43 6.1 100 100 Calm 30.15 1021 0 0 0.00 0.00
1:48 am 01:48 Mostly Cloudy with Fog 45 7 45 7 100 100 Calm 30.15 1021 0 0 0.00 0.00
1:53 am 01:53 Clear with Fog 46 7.8 46 7.8 100 100 Calm 30.16 1021 0 0 0.00 0.00
1:59 am 01:59 Clear with Mist and Fog 44 6.7 44 6.7 100 100 Calm 30.15 1021 1 2 0.00 0.00
2:13 am 02:13 Clear with Mist and Fog 44 6.7 44 6.7 100 100 Calm 30.15 1021 1 1 0.00 0.00
2:18 am 02:18 Clear with Mist and Fog 45 7.2 45 7.2 100 100 Calm 30.15 1021 2 3 0.00 0.00
2:25 am 02:25 Clear with Mist and Fog 45 7.2 45 7.2 100 100 Calm 30.15 1021 5 8 0.00 0.00
2:53 am 02:53 Clear with Mist and Fog 45 7.2 45 7.2 100 100 Calm 30.15 1021 2 3 0.00 0.00
2:59 am 02:59 Clear with Mist and Fog 45 7.2 45 7.2 100 100 Calm 30.15 1021 1 1 0.00 0.00
3:09 am 03:09 Clear with Mist and Fog 45 7.2 45 7.2 100 100 Calm 30.15 1021 2 3 0.00 0.00
3:16 am 03:16 Clear with Mist and Fog 45 7 45 7 100 100 Calm 30.15 1021 4 6 0.00 0.00
3:40 am 03:40 Clear with Mist and Fog 45 7 45 7 100 100 Calm 30.15 1021 1 1 0.00 0.00
3:51 am 03:51 Clear with Fog 46 8 46 8 100 100 Calm 30.15 1021 0 0 0.00 0.00
3:53 am 03:53 Clear with Fog 46 7.8 46 7.8 100 100 Calm 30.14 1021 1 1 0.00 0.00
4:17 am 04:17 Clear with Mist and Fog 45 7.2 45 7.2 100 100 Calm 30.12 1020 2 2 0.00 0.00
4:21 am 04:21 Clear with Mist and Fog 45 7.2 45 7.2 100 100 Calm 30.12 1020 3 5 0.00 0.00
4:53 am 04:53 Clear 45 7.2 45 7.2 100 100 Calm 30.13 1020 7 11 0.00 0.00
5:49 am 05:49 Clear with Mist and Fog 46 8 46 8 100 100 Calm 30.15 1021 2 2 0.00 0.00
5:53 am 05:53 Clear with Mist and Fog 46 7.8 46 7.8 100 100 Calm 30.14 1021 1 2 0.00 0.00
6:25 am 06:25 Clear with Mist and Fog 46 7.8 46 7.8 100 100 Calm 30.15 1021 4 6 0.00 0.00
6:36 am 06:36 Clear with Mist and Fog 45 7 45 7 100 100 Calm 30.15 1021 2 3 0.00 0.00
6:45 am 06:45 Clear with Fog 44 6.7 44 6.7 100 100 Calm 30.15 1021 1 1 0.00 0.00
6:53 am 06:53 Clear with Fog 46 7.8 46 7.8 100 100 Calm 30.14 1021 10 16 0.00 0.00
7:53 am 07:53 Clear with Fog 45 7.2 45 7.2 100 100 Calm 30.14 1021 10 16 0.00 0.00
8:53 am 08:53 Sunny 47 8.3 47 8.3 100 100 Calm 30.14 1021 10 16 0.00 0.00
9:53 am 09:53 Sunny 57 13.9 55 12.8 93 93 E 5 7 30.14 1021 10 16 0.00 0.00
10:53 am 10:53 Sunny 67 19.4 57 13.9 71 71 SSW 14 22 30.13 1020 10 16 0.00 0.00
11:53 am 11:53 Sunny 71 21.7 58 14.4 63 63 SW 13 20 30.12 1020 10 16 0.00 0.00
12:53 pm 12:53 Sunny 75 23.9 59 15 58 58 WSW 12 19 30.10 1019 10 16 0.00 0.00
1:53 pm 13:53 Sunny 78 25.6 60 15.6 54 54 WSW 14 22 30.07 1018 10 16 0.00 0.00
2:53 pm 14:53 Sunny 78 25.6 58 14.4 50 50 WSW 17 28 30.04 1017 10 16 0.00 0.00
3:53 pm 15:53 Sunny 78 25.6 58 14.4 50 50 SW 14 22 30.03 1017 10 16 0.00 0.00
4:53 pm 16:53 Sunny 77 25 59 15 54 54 SW 12 19 30.02 1017 10 16 0.00 0.00
5:53 pm 17:53 Sunny 74 23.3 58 14.4 57 57 SSW 12 19 30.02 1017 10 16 0.00 0.00
6:53 pm 18:53 Clear 71 21.7 57 13.9 61 61 SSW 12 19 30.03 1017 10 16 0.00 0.00
7:53 pm 19:53 Clear 69 20.6 56 13.3 63 63 SSW 10 17 30.05 1018 10 16 0.00 0.00
8:53 pm 20:53 Clear 66 18.9 56 13.3 70 70 SW 7 11 30.06 1018 10 16 0.00 0.00
9:53 pm 21:53 Clear 61 16.1 57 13.9 87 87 SW 7 11 30.06 1018 8 13 0.00 0.00
10:53 pm 22:53 Clear 59 15 58 14.4 96 96 WSW 7 11 30.06 1018 10 16 0.00 0.00
11:53 pm 23:53 Clear 57 13.9 56 13.3 96 96 Calm 30.05 1018 7 11 0.00 0.00

Powered by AerisWeather